• In Belarus
  • List of Countries
  • For 7 days
  • Water Temperature
  • Satellite Maps
  • Weather Map
  • Weather Widgets
  • user-avatar
    Login

    Hourly Weather Tegu

    Today, 17 October, Wednesday

    Time Temperature Precipitation Wind Pressure Humidity
    00:00 +12°C° 0 mm 1 mps 756 mmHg 78%
    01:00 +12°C° 0 mm 1 mps 756 mmHg 79%
    02:00 +11°C° 0 mm 1 mps 756 mmHg 79%
    03:00 +11°C° 0 mm 1 mps 756 mmHg 80%
    04:00 +11°C° 0 mm 1 mps 756 mmHg 81%
    05:00 +10°C° 0 mm 1 mps 756 mmHg 81%
    06:00 +10°C° 0 mm 1 mps 756 mmHg 82%
    07:00 +12°C° 0 mm 1 mps 756 mmHg 75%
    08:00 +14°C° 0 mm 1 mps 756 mmHg 69%
    09:00 +15°C° 0 mm 1 mps 756 mmHg 63%
    10:00 +18°C° 0 mm 1 mps 756 mmHg 57%
    11:00 +20°C° 0 mm 1 mps 756 mmHg 51%
    12:00 +21°C° 0 mm 1 mps 756 mmHg 45%
    13:00 +22°C° 0 mm 1 mps 756 mmHg 44%
    14:00 +21°C° 0 mm 2 mps 755 mmHg 43%
    15:00 +21°C° 0 mm 2 mps 755 mmHg 42%
    16:00 +19°C° 0 mm 2 mps 755 mmHg 48%
    17:00 +17°C° 0 mm 2 mps 755 mmHg 54%
    18:00 +15°C° 0 mm 1 mps 756 mmHg 60%
    19:00 +14°C° 0 mm 1 mps 756 mmHg 64%
    20:00 +13°C° 0 mm 1 mps 756 mmHg 68%
    21:00 +12°C° 0 mm 1 mps 756 mmHg 72%
    22:00 +12°C° 0 mm 1 mps 756 mmHg 74%
    23:00 +12°C° 0 mm 1 mps 756 mmHg 76%

    Tomorrow, 18 October, Thursday

    Time Temperature Precipitation Wind Pressure Humidity
    00:00 +11°C° 0 mm 1 mps 756 mmHg 78%
    01:00 +11°C° 0 mm 1 mps 757 mmHg 79%
    02:00 +10°C° 0 mm 1 mps 757 mmHg 79%
    03:00 +10°C° 0 mm 1 mps 757 mmHg 79%
    04:00 +10°C° 0 mm 1 mps 757 mmHg 79%
    05:00 +9°C° 0 mm 1 mps 757 mmHg 79%
    06:00 +9°C° 0 mm 1 mps 757 mmHg 79%
    07:00 +10°C° 0 mm 1 mps 757 mmHg 72%
    08:00 +12°C° 0 mm 1 mps 757 mmHg 66%
    09:00 +14°C° 0 mm 1 mps 757 mmHg 59%
    10:00 +15°C° 0 mm 1 mps 757 mmHg 53%
    11:00 +18°C° 0 mm 1 mps 757 mmHg 47%
    12:00 +20°C° 0 mm 1 mps 757 mmHg 41%
    13:00 +19°C° 0 mm 2 mps 757 mmHg 40%
    14:00 +19°C° 0 mm 2 mps 757 mmHg 40%
    15:00 +19°C° 0 mm 2 mps 757 mmHg 40%
    16:00 +18°C° 0.1 mm 2 mps 757 mmHg 47%
    17:00 +16°C° 0.1 mm 2 mps 757 mmHg 55%
    18:00 +14°C° 0.1 mm 2 mps 757 mmHg 62%
    19:00 +14°C° 0 mm 2 mps 758 mmHg 68%
    20:00 +13°C° 0 mm 2 mps 758 mmHg 73%
    21:00 +12°C° 0 mm 2 mps 758 mmHg 79%
    22:00 +12°C° 0 mm 2 mps 758 mmHg 80%
    23:00 +12°C° 0 mm 1 mps 759 mmHg 82%

    Day after tomorrow, 19 October, Friday

    Time Temperature Precipitation Wind Pressure Humidity
    00:00 +12°C° 0 mm 1 mps 759 mmHg 83%
    01:00 +12°C° 0 mm 1 mps 759 mmHg 84%
    02:00 +11°C° 0 mm 1 mps 759 mmHg 84%
    03:00 +11°C° 0 mm 1 mps 759 mmHg 85%
    04:00 +10°C° 0 mm 2 mps 759 mmHg 85%
    05:00 +10°C° 0 mm 2 mps 759 mmHg 85%
    06:00 +10°C° 0 mm 2 mps 759 mmHg 86%
    07:00 +12°C° 0 mm 2 mps 760 mmHg 80%
    08:00 +12°C° 0 mm 3 mps 760 mmHg 74%
    09:00 +13°C° 0 mm 3 mps 761 mmHg 68%
    10:00 +14°C° 0 mm 3 mps 761 mmHg 68%
    11:00 +16°C° 0 mm 3 mps 761 mmHg 68%
    12:00 +17°C° 0 mm 4 mps 761 mmHg 68%
    13:00 +16°C° 0.2 mm 3 mps 761 mmHg 71%
    14:00 +16°C° 0.2 mm 3 mps 761 mmHg 73%
    15:00 +16°C° 0.2 mm 3 mps 761 mmHg 75%
    16:00 +15°C° 0.1 mm 2 mps 761 mmHg 78%
    17:00 +15°C° 0.1 mm 2 mps 761 mmHg 80%
    18:00 +14°C° 0.1 mm 2 mps 762 mmHg 83%
    19:00 +13°C° 0 mm 1 mps 762 mmHg 84%
    20:00 +13°C° 0 mm 1 mps 762 mmHg 86%
    21:00 +12°C° 0 mm 1 mps 763 mmHg 88%
    22:00 +12°C° 0 mm 1 mps 763 mmHg 89%
    23:00 +11°C° 0 mm 1 mps 763 mmHg 89%

    20 October, Saturday

    Time Temperature Precipitation Wind Pressure Humidity
    00:00 +11°C° 0 mm 1 mps 763 mmHg 90%
    01:00 +10°C° 0 mm 1 mps 763 mmHg 90%
    02:00 +10°C° 0 mm 1 mps 763 mmHg 90%
    03:00 +10°C° 0 mm 1 mps 763 mmHg 91%
    04:00 +10°C° 0 mm 1 mps 763 mmHg 91%
    05:00 +9°C° 0 mm 1 mps 763 mmHg 91%
    06:00 +9°C° 0 mm 1 mps 763 mmHg 91%
    07:00 +11°C° 0 mm 1 mps 764 mmHg 84%
    08:00 +13°C° 0 mm 1 mps 764 mmHg 78%
    09:00 +14°C° 0 mm 1 mps 764 mmHg 71%
    10:00 +16°C° 0 mm 1 mps 764 mmHg 64%
    11:00 +19°C° 0 mm 1 mps 764 mmHg 57%
    12:00 +20°C° 0 mm 2 mps 763 mmHg 50%
    13:00 +20°C° 0 mm 2 mps 763 mmHg 48%
    14:00 +20°C° 0 mm 2 mps 763 mmHg 47%
    15:00 +21°C° 0 mm 1 mps 762 mmHg 46%
    16:00 +20°C° 0 mm 1 mps 762 mmHg 53%
    17:00 +18°C° 0 mm 1 mps 762 mmHg 60%
    18:00 +15°C° 0 mm 1 mps 763 mmHg 66%
    19:00 +14°C° 0 mm 1 mps 763 mmHg 70%
    20:00 +13°C° 0 mm 1 mps 763 mmHg 73%
    21:00 +12°C° 0 mm 1 mps 763 mmHg 76%
    22:00 +12°C° 0 mm 1 mps 763 mmHg 78%
    23:00 +11°C° 0 mm 1 mps 763 mmHg 80%

    21 October, Sunday

    Time Temperature Precipitation Wind Pressure Humidity
    00:00 +11°C° 0 mm 1 mps 763 mmHg 82%
    01:00 +11°C° 0 mm 1 mps 763 mmHg 83%
    02:00 +11°C° 0 mm 1 mps 763 mmHg 84%
    03:00 +10°C° 0 mm 1 mps 763 mmHg 85%
    04:00 +10°C° 0 mm 1 mps 763 mmHg 85%
    05:00 +10°C° 0 mm 1 mps 763 mmHg 86%
    06:00 +10°C° 0 mm 1 mps 763 mmHg 86%
    07:00 +12°C° 0 mm 1 mps 763 mmHg 79%
    08:00 +13°C° 0 mm 1 mps 763 mmHg 72%
    09:00 +15°C° 0 mm 1 mps 763 mmHg 64%
    10:00 +18°C° 0 mm 1 mps 763 mmHg 58%
    11:00 +20°C° 0 mm 1 mps 763 mmHg 52%
    12:00 +22°C° 0 mm 1 mps 762 mmHg 46%
    13:00 +22°C° 0 mm 1 mps 762 mmHg 46%
    14:00 +22°C° 0 mm 1 mps 761 mmHg 46%
    15:00 +22°C° 0 mm 1 mps 761 mmHg 46%
    16:00 +20°C° 0 mm 1 mps 761 mmHg 53%
    17:00 +18°C° 0 mm 1 mps 761 mmHg 60%
    18:00 +16°C° 0 mm 1 mps 761 mmHg 67%
    19:00 +15°C° 0 mm 1 mps 761 mmHg 71%
    20:00 +14°C° 0 mm 1 mps 761 mmHg 75%
    21:00 +13°C° 0 mm 1 mps 762 mmHg 79%
    22:00 +13°C° 0 mm 1 mps 762 mmHg 81%
    23:00 +13°C° 0 mm 1 mps 761 mmHg 83%

    22 October, Monday

    Time Temperature Precipitation Wind Pressure Humidity
    00:00 +11°C° 0 mm 0 mps 761 mmHg 85%
    01:00 +11°C° 0 mm 0 mps 761 mmHg 86%
    02:00 +12°C° 0 mm 1 mps 761 mmHg 87%
    03:00 +12°C° 0 mm 1 mps 761 mmHg 88%
    04:00 +11°C° 0 mm 1 mps 761 mmHg 89%
    05:00 +11°C° 0 mm 1 mps 761 mmHg 89%
    06:00 +10°C° 0 mm 0 mps 761 mmHg 90%
    07:00 +12°C° 0 mm 0 mps 761 mmHg 83%
    08:00 +14°C° 0 mm 0 mps 762 mmHg 76%
    09:00 +16°C° 0 mm 0 mps 762 mmHg 69%
    10:00 +18°C° 0 mm 0 mps 761 mmHg 63%
    11:00 +19°C° 0 mm 0 mps 761 mmHg 57%
    12:00 +21°C° 0 mm 0 mps 761 mmHg 50%
    13:00 +21°C° 0 mm 0 mps 760 mmHg 49%
    14:00 +21°C° 0 mm 0 mps 760 mmHg 48%
    15:00 +22°C° 0 mm 0 mps 760 mmHg 47%
    16:00 +20°C° 0 mm 0 mps 760 mmHg 53%
    17:00 +18°C° 0 mm 0 mps 760 mmHg 59%
    18:00 +16°C° 0 mm 0 mps 760 mmHg 65%
    19:00 +16°C° 0 mm 0 mps 760 mmHg 68%
    20:00 +15°C° 0 mm 0 mps 760 mmHg 70%
    21:00 +15°C° 0 mm 0 mps 761 mmHg 73%
    22:00 +15°C° 0 mm 0 mps 760 mmHg 75%
    23:00 +14°C° 0 mm 0 mps 760 mmHg 77%
    Show more